Retour au catalogue

FREGAT DEB

ActifUNKNOWN
NORAD 45816·DEBRIS·🇷🇺 Russia

Lancé Jul 18, 2011 depuis Baikonur Cosmodrome

Loading…

Prochains Passages (prochaines 24 heures)

TLE

FraisSource: Space-Track

Époque: Sep 13, 2026, 09:16 UTC

1 45816U 11037BA  26256.38657068  .00003243  00000-0  69749-3 0  9990
2 45816  51.4837 135.5165 1582167 247.0706  95.5829 11.91401588262776

Suivez FREGAT DEB en temps réel avec AllMySat

Download on the App Store